| time (UTC) | temp F | wind direction | speed knots | gust knots | rain 1hr in | rain 24hr in | rain mn in | humidity % | barometer mb |
| 20260507223030 | 73 | 48 | 4.3 | 8.7 | 0.00 | 0.00 | 0.00 | 30 | 1018.6 |
| 20260507221535 | 72 | 62 | 5.2 | 9.6 | 0.00 | 0.00 | 0.00 | 31 | 1018.8 |
| 20260507220034 | 71 | 85 | 6.1 | 13.0 | 0.00 | 0.00 | 0.00 | 32 | 1019.0 |
| 20260507214534 | 71 | 88 | 6.1 | 15.6 | 0.00 | 0.00 | 0.00 | 32 | 1019.0 |
| 20260507213042 | 72 | 70 | 5.2 | 15.6 | 0.00 | 0.00 | 0.00 | 32 | 1019.1 |
| 20260507213037 | 72 | 50 | 4.3 | 9.6 | 0.00 | 0.00 | 0.00 | 32 | 1019.2 |
| 20260507210032 | 71 | 34 | 5.2 | 11.3 | 0.00 | 0.00 | 0.00 | 33 | 1019.3 |
| 20260507201537 | 70 | 69 | 4.3 | 8.7 | 0.00 | 0.00 | 0.00 | 36 | 1020.0 |
| 20260507200106 | 70 | 97 | 4.3 | 11.3 | 0.00 | 0.00 | 0.00 | 37 | 1020.0 |
| 20260507194533 | 70 | 84 | 6.1 | 9.6 | 0.00 | 0.00 | 0.00 | 37 | 1020.0 |
| 20260507193107 | 70 | 70 | 4.3 | 9.6 | 0.00 | 0.00 | 0.00 | 37 | 1020.1 |
| 20260507191534 | 69 | 47 | 3.5 | 7.8 | 0.00 | 0.00 | 0.00 | 40 | 1020.3 |
| 20260507190035 | 69 | 55 | 4.3 | 7.8 | 0.00 | 0.00 | 0.00 | 42 | 1020.4 |
| 20260507184541 | 67 | 85 | 4.3 | 10.4 | 0.00 | 0.00 | 0.00 | 45 | 1020.5 |
| 20260507184535 | 68 | 88 | 4.3 | 11.3 | 0.00 | 0.00 | 0.00 | 46 | 1020.6 |
| 20260507181533 | 66 | 73 | 4.3 | 9.6 | 0.00 | 0.00 | 0.00 | 48 | 1020.6 |
| 20260507174532 | 67 | 53 | 5.2 | 13.9 | 0.00 | 0.00 | 0.00 | 43 | 1020.7 |
| 20260507171535 | 66 | 289 | 1.7 | 6.1 | 0.00 | 0.00 | 0.00 | 41 | 1020.8 |
| 20260507170053 | 64 | 292 | 2.6 | 7.8 | 0.00 | 0.00 | 0.00 | 51 | 1020.8 |
| 20260507164606 | 62 | 258 | 3.5 | 9.6 | 0.00 | 0.00 | 0.00 | 57 | 1020.8 |
| 20260507163036 | 60 | 273 | 2.6 | 5.2 | 0.00 | 0.00 | 0.00 | 64 | 1021.0 |
| 20260507161534 | 59 | 292 | 2.6 | 6.1 | 0.00 | 0.00 | 0.00 | 67 | 1021.1 |
| 20260507154645 | 57 | 11 | 0.9 | 4.3 | 0.00 | 0.00 | 0.00 | 80 | 1021.4 |
| 20260507153033 | 55 | 158 | 0.0 | 1.7 | 0.00 | 0.00 | 0.00 | 83 | 1021.5 |
| 20260507151535 | 53 | 158 | 0.9 | 4.3 | 0.00 | 0.00 | 0.00 | 86 | 1021.5 |
| 20260507150051 | 52 | 125 | 0.9 | 4.3 | 0.00 | 0.00 | 0.00 | 91 | 1021.6 |
| 20260507144537 | 49 | 137 | 0.0 | 2.6 | 0.00 | 0.00 | 0.00 | 93 | 1021.5 |
| 20260507143031 | 47 | 119 | 0.9 | 4.3 | 0.00 | 0.00 | 0.00 | 94 | 1021.4 |
| 20260507141531 | 45 | 179 | 0.9 | 2.6 | 0.00 | 0.00 | 0.00 | 94 | 1021.3 |
| 20260507140036 | 44 | 169 | 1.7 | 3.5 | 0.00 | 0.00 | 0.00 | 94 | 1021.1 |
| 20260507133034 | 44 | 146 | 0.9 | 2.6 | 0.00 | 0.00 | 0.00 | 92 | 1021.0 |
| 20260507131536 | 45 | 128 | 2.6 | 4.3 | 0.00 | 0.00 | 0.00 | 92 | 1021.0 |
| 20260507130036 | 45 | 119 | 2.6 | 5.2 | 0.00 | 0.00 | 0.00 | 92 | 1020.9 |
| 20260507124538 | 45 | 97 | 3.5 | 6.1 | 0.00 | 0.00 | 0.00 | 92 | 1020.9 |
| 20260507123034 | 45 | 101 | 1.7 | 4.3 | 0.00 | 0.00 | 0.00 | 91 | 1020.7 |
| 20260507121530 | 46 | 98 | 2.6 | 5.2 | 0.00 | 0.00 | 0.00 | 91 | 1020.7 |
| 20260507114539 | 47 | 88 | 3.5 | 7.8 | 0.00 | 0.00 | 0.00 | 87 | 1020.5 |
| 20260507113035 | 47 | 107 | 2.6 | 7.8 | 0.00 | 0.00 | 0.00 | 86 | 1020.4 |
| 20260507111535 | 47 | 92 | 3.5 | 5.2 | 0.00 | 0.00 | 0.00 | 85 | 1020.2 |
| 20260507104536 | 49 | 104 | 3.5 | 6.1 | 0.00 | 0.00 | 0.00 | 82 | 1020.2 |
| 20260507103037 | 49 | 108 | 2.6 | 7.0 | 0.00 | 0.00 | 0.00 | 79 | 1020.2 |
| 20260507101536 | 49 | 117 | 2.6 | 4.3 | 0.00 | 0.00 | 0.00 | 77 | 1020.2 |
| 20260507100042 | 50 | 161 | 1.7 | 3.5 | 0.00 | 0.00 | 0.00 | 76 | 1020.2 |
| 20260507094535 | 51 | 112 | 0.9 | 4.3 | 0.00 | 0.00 | 0.00 | 75 | 1020.2 |
| 20260507093038 | 51 | 141 | 2.6 | 4.3 | 0.00 | 0.00 | 0.00 | 75 | 1020.2 |
| 20260507091535 | 50 | 137 | 2.6 | 4.3 | 0.00 | 0.00 | 0.00 | 75 | 1020.4 |
| 20260507084535 | 51 | 154 | 0.0 | 2.6 | 0.00 | 0.00 | 0.00 | 68 | 1020.5 |
| 20260507083038 | 51 | 110 | 1.7 | 5.2 | 0.00 | 0.00 | 0.00 | 66 | 1020.5 |
| 20260507081537 | 52 | 180 | 1.7 | 3.5 | 0.00 | 0.00 | 0.00 | 63 | 1020.5 |
| 20260507080030 | 53 | 194 | 2.6 | 5.2 | 0.00 | 0.00 | 0.00 | 60 | 1020.6 |
| 20260507073037 | 56 | 240 | 2.6 | 6.1 | 0.00 | 0.00 | 0.00 | 55 | 1020.4 |
| 20260507071537 | 56 | 284 | 0.9 | 2.6 | 0.00 | 0.00 | 0.00 | 54 | 1020.4 |
| 20260507070034 | 57 | 320 | 0.9 | 3.5 | 0.00 | 0.00 | 0.00 | 53 | 1020.5 |
| 20260507064533 | 56 | 107 | 1.7 | 6.1 | 0.00 | 0.00 | 0.00 | 55 | 1020.5 |
| 20260507063036 | 56 | 96 | 3.5 | 6.1 | 0.00 | 0.00 | 0.00 | 55 | 1020.6 |
| 20260507061535 | 57 | 110 | 1.7 | 7.8 | 0.00 | 0.00 | 0.00 | 54 | 1020.7 |
| 20260507054641 | 59 | 332 | 3.5 | 11.3 | 0.00 | 0.00 | 0.00 | 49 | 1020.6 |
| 20260507053032 | 60 | 345 | 7.0 | 14.8 | 0.00 | 0.00 | 0.00 | 47 | 1020.6 |
| 20260507044530 | 61 | 312 | 7.8 | 14.8 | 0.00 | 0.00 | 0.00 | 42 | 1020.8 |
| 20260507043036 | 61 | 310 | 8.7 | 16.5 | 0.00 | 0.00 | 0.00 | 42 | 1020.8 |
| 20260507041534 | 61 | 310 | 8.7 | 13.9 | 0.00 | 0.00 | 0.00 | 43 | 1020.6 |
| 20260507040045 | 61 | 312 | 9.6 | 18.2 | 0.00 | 0.00 | 0.00 | 45 | 1020.5 |
| 20260507034537 | 62 | 322 | 9.6 | 18.2 | 0.00 | 0.00 | 0.00 | 47 | 1020.5 |
| 20260507031530 | 63 | 315 | 11.3 | 18.2 | 0.00 | 0.00 | 0.00 | 47 | 1020.2 |
| 20260507030107 | 64 | 308 | 12.2 | 20.9 | 0.00 | 0.00 | 0.00 | 46 | 1020.1 |
| 20260507024535 | 64 | 319 | 8.7 | 20.0 | 0.00 | 0.00 | 0.00 | 46 | 1020.1 |
| 20260507023040 | 65 | 325 | 7.0 | 18.2 | 0.00 | 0.00 | 0.00 | 45 | 1020.1 |
| 20260507020031 | 66 | 354 | 5.2 | 11.3 | 0.00 | 0.00 | 0.00 | 43 | 1020.1 |
| 20260507014533 | 68 | 328 | 8.7 | 15.6 | 0.00 | 0.00 | 0.00 | 37 | 1020.0 |
| 20260507013031 | 68 | 323 | 9.6 | 22.6 | 0.00 | 0.00 | 0.00 | 36 | 1020.0 |
| 20260507011535 | 69 | 316 | 8.7 | 17.4 | 0.00 | 0.00 | 0.00 | 37 | 1020.0 |
| 20260507010031 | 69 | 318 | 6.1 | 18.2 | 0.00 | 0.00 | 0.00 | 38 | 1020.0 |
| 20260507003037 | 70 | 312 | 8.7 | 18.2 | 0.00 | 0.00 | 0.00 | 36 | 1019.6 |
| 20260507000153 | 72 | 317 | 10.4 | 20.0 | 0.00 | 0.00 | 0.00 | 33 | 1019.2 |
| 20260506234536 | 73 | 319 | 13.0 | 20.9 | 0.00 | 0.00 | 0.00 | 33 | 1019.2 |
| 20260506233035 | 74 | 318 | 11.3 | 18.2 | 0.00 | 0.00 | 0.00 | 32 | 1019.3 |
| 20260506231530 | 74 | 322 | 11.3 | 21.7 | 0.00 | 0.00 | 0.00 | 32 | 1019.3 |
| 20260506230037 | 74 | 319 | 11.3 | 19.1 | 0.00 | 0.00 | 0.00 | 33 | 1019.3 |
| 20260506224530 | 74 | 314 | 11.3 | 23.5 | 0.00 | 0.00 | 0.00 | 34 | 1019.5 |